Miscellaneous Local Product
Issued by NWS North Platte, NE

Home | Current Version | Previous Version | Text Only | Print | Product List | Glossary On
Versions: 1 2 3 4 5 6 7 8 9 10 11 12 13 14 15 16 17 18 19 20 21 22 23 24 25 26 27 28 29 30 31 32 33 34 35 36 37 38 39 40 41 42 43 44 45 46 47 48 49 50
000
AXUS43 KLBF 221810
MISLBF


WESTERN AND NORTH CENTRAL NEBRASKA HOURLY WEATHER ROUNDUP
NATIONAL WEATHER SERVICE NORTH PLATTE NE
1200 PM CST MON DEC 22 2014

***STATIONS NOT REPORTING VARIABLES SUCH AS SKY/WEATHER OR
PRESSURE ARE PROVIDED BY THE NEBRASKA DEPARTMENT OF
ROADS...RAWS...AND APRS NETWORKS...AND ARE NOT UNDER
NATIONAL WEATHER SERVICE QUALITY CONTROL***

...OBSERVATIONS IN AND NEAR THE EASTERN PANHANDLE OF NEBRASKA...

CITY           SKY/WX    TMP DP  RH WIND       PRES   REMARKS
PINE RIDGE     SUNNY     41  25  53 W23G33    29.55F
CHADRON        SUNNY     41  25  53 NW23G39   29.61F
ALLIANCE       SUNNY     39  24  55 NW17G28   29.60F WCI  30
SIDNEY         MOSUNNY   38  21  50 NW23G32   29.66F WCI  27
WHITECLAY        N/A     38  23  53 W16         N/A  WCI  30
CRESCENT LAKE    N/A     40  24  54 NW20G30     N/A  WCI  30
LISCO            N/A     41  22  45 W21         N/A
BIG SPRINGS      N/A     42  29  61 NW12        N/A
$$

...OBSERVATIONS IN NORTH CENTRAL NEBRASKA...

CITY           SKY/WX    TMP DP  RH WIND       PRES   REMARKS
VALENTINE      CLOUDY    40  28  62 NW24G36   29.49F WCI  29
THEDFORD       SUNNY     44  30  57 NW18G28   29.51F
AINSWORTH      CLOUDY    38  30  71 NW20      29.49F WCI  28
O`NEILL        CLOUDY    40  37  89 NW16G24   29.47F WCI  32
BROKEN BOW     MOSUNNY   45  32  60 NW23G35   29.50F
BROWNLEE         N/A     43  28  56 W16         N/A
SPRINGVIEW       N/A     38  33  82 NW10G20     N/A  WCI  31
BREWSTER         N/A     43  29  58 NW24        N/A
ROSE             N/A     40  35  82 SW15        N/A  WCI  31
SARGENT          N/A     42  34  73 NW5G18      N/A
COMSTOCK         N/A     44  34  69 NW17        N/A
CHAMBERS         N/A     40  34  78 NW13        N/A  WCI  32
EWING            N/A     40  38  93 CALM        N/A
$$

...OBSERVATIONS IN SOUTHWEST NEBRASKA AND FAR NORTHEAST COLORADO...

CITY           SKY/WX    TMP DP  RH WIND       PRES   REMARKS
WRAY           FAIR      41  29  62 W20       29.68F
HOLYOKE        FAIR      43  27  52 NW15G24   29.65F
IMPERIAL       MOSUNNY   44  25  47 NW24G32   29.62F
OGALLALA       MOSUNNY   41  28  60 NW15G26   29.61F
NORTH PLATTE   SUNNY     47  27  45 NW20G29   29.56F
MCCOOK         MOSUNNY   48  27  44 NW29      29.59F
LEXINGTON      SUNNY     45  35  66 NW14G20   29.54F
PAXTON           N/A     42  30  63 NW12        N/A
BRADY            N/A     45  29  53 SW8G16      N/A
GOTHENBURG       N/A     46  25  44 NW20        N/A
CALLAWAY         N/A     44  30  59 NW16        N/A
$$

...NORTH PLATTE AREA...

CITY           SKY/WX    TMP DP  RH WIND       PRES   REMARKS
AIRPORT        SUNNY     47  27  45 NW20G29   29.56F
DOWNTOWN         N/A     45  28  51 NW10G20     N/A
$$

...SOME WEATHER OBSERVATIONS FROM AROUND THE REGION...

CITY           SKY/WX    TMP DP  RH WIND       PRES   REMARKS
DENVER         PTSUNNY   33  26  75 E6        29.70F WCI  28
LARAMIE        LGT SNOW  25  20  81 NW30G36   29.67F WCI   8
CHEYENNE       CLOUDY    30  18  60 NW17G32   29.68F WCI  18
SCOTTSBLUFF    SUNNY     38  25  59 W18       29.66F WCI  28
RAPID CITY     PTSUNNY   45  19  35 NW37G51   29.50F
PIERRE         CLOUDY    37  32  82 NW23G29   29.45F WCI  26
WINNER         LGT RAIN  37  33  85 NW23G30   29.46F WCI  26
SIOUX FALLS    LGT RAIN  38  37  97 W5        29.42F FOG     WCI  34
OMAHA          LGT RAIN  42  41  96 SE13      29.47F FOG
GRAND ISLAND   CLOUDY    46  35  65 NW23G31   29.50F
KANSAS CITY    LGT RAIN  43  43 100 S10       29.50F FOG
WICHITA        PTSUNNY   50  40  68 NW16G26   29.56F
HAYS           MOSUNNY   48  30  49 NW17      29.59F
LIBERAL        SUNNY     48  32  53 NW23      29.72F
GOODLAND       SUNNY     45  23  42 N25G38    29.67F
$$



USA.gov is the U.S. government's official web portal to all federal, state and local government web resources and services.